This demonstration page uses our WeatherBlox Daily Observations layout. Learn more.

Left ArrowRight Arrow

Hourly Observations for November 25, 2021

Temp ( °F °C ) Dew Point ( °F °C ) Humidity (%) Winds ( mph kmh ) Pressure ( in mb ) Visibility ( mi km ) Precip ( " mm )
12:53 am 00:53 Clear 36 2.2 30 -1.1 79 79 Calm 30.35 1028 10 16 0.00 0.00
1:53 am 01:53 Clear 35 1.7 30 -1.1 82 82 Calm 30.33 1027 10 16 0.00 0.00
2:53 am 02:53 Clear 34 1.1 31 -0.6 89 89 Calm 30.33 1027 10 16 0.00 0.00
3:53 am 03:53 Clear 33 0.6 30 -1.1 89 89 Calm 30.33 1027 10 16 0.00 0.00
4:53 am 04:53 Clear 32 0 30 -1.1 92 92 Calm 30.33 1027 10 16 0.00 0.00
5:53 am 05:53 Clear 32 0 30 -1.1 92 92 Calm 30.32 1027 10 16 0.00 0.00
6:53 am 06:53 Clear 31 -0.6 29 -1.7 92 92 Calm 30.32 1027 10 16 0.00 0.00
7:53 am 07:53 Sunny 32 0 30 -1.1 92 92 Calm 30.29 1026 10 16 0.00 0.00
8:53 am 08:53 Sunny 38 3.3 33 0.6 83 83 Calm 30.29 1026 10 16 0.00 0.00
9:53 am 09:53 Sunny 45 7.2 35 1.7 68 68 Calm 30.30 1026 10 16 0.00 0.00
10:53 am 10:53 Sunny 52 11.1 40 4.4 64 64 SW 7 11 30.28 1025 10 16 0.00 0.00
11:53 am 11:53 Sunny 57 13.9 42 5.6 58 58 SSW 9 15 30.24 1024 10 16 0.00 0.00
12:53 pm 12:53 Sunny 61 16.1 43 6.1 52 52 SW 9 15 30.21 1023 10 16 0.00 0.00
1:53 pm 13:53 Sunny 63 17.2 41 5 45 45 SW 7 11 30.17 1022 10 16 0.00 0.00
2:53 pm 14:53 Sunny 65 18.3 42 5.6 43 43 SSW 6 9 30.15 1021 10 16 0.00 0.00
3:53 pm 15:53 Sunny 65 18.3 42 5.6 43 43 S 6 9 30.13 1020 10 16 0.00 0.00
4:53 pm 16:53 Sunny 63 17.2 43 6.1 48 48 S 5 7 30.13 1020 10 16 0.00 0.00
5:53 pm 17:53 Clear 59 15 44 6.7 58 58 S 5 7 30.10 1019 10 16 0.00 0.00
6:53 pm 18:53 Mostly Cloudy 57 13.9 45 7.2 64 64 S 5 7 30.10 1019 10 16 0.00 0.00
7:53 pm 19:53 Cloudy 57 13.9 46 7.8 67 67 SSW 3 6 30.08 1019 10 16 0.00 0.00
8:53 pm 20:53 Cloudy 57 13.9 47 8.3 69 69 SW 5 7 30.08 1019 10 16 0.00 0.00
9:22 pm 21:22 Cloudy 58 14.4 48 8.9 70 70 SSW 7 11 30.08 1018 10 16 0.00 0.00
9:30 pm 21:30 Cloudy with Light Rain 57 13.9 49 9.4 74 74 SW 7 11 30.07 1018 6 10 0.00 0.00
9:41 pm 21:41 Cloudy with Light Rain 56 13.3 51 10.6 84 84 SW 5 7 30.07 1018 6 10 0.00 0.00
9:53 pm 21:53 Cloudy 56 13.3 52 11.1 87 87 SSW 5 7 30.06 1018 10 16 0.00 0.00
10:22 pm 22:22 Cloudy with Light Rain 55 12.8 52 11.1 90 90 SW 6 9 30.06 1018 10 16 0.01 0.25
10:53 pm 22:53 Cloudy with Rain 55 12.8 53 11.7 93 93 SW 5 7 30.05 1018 4 6 0.03 0.76
11:01 pm 23:01 Cloudy with Rain 55 12.8 53 11.7 93 93 SW 6 9 30.05 1018 4 6 0.01 0.25
11:09 pm 23:09 Cloudy with Light Rain 55 12.8 54 12.2 96 96 SW 5 7 30.05 1018 5 8 0.02 0.51
11:24 pm 23:24 Cloudy with Light Rain 55 12.8 54 12.2 96 96 SW 5 7 30.05 1018 6 10 0.03 0.76
11:41 pm 23:41 Cloudy with Light Rain 55 12.8 54 12.2 96 96 WSW 3 6 30.04 1017 7 11 0.04 1.02
11:53 pm 23:53 Cloudy with Light Rain 55 12.8 54 12.2 96 96 WSW 3 6 30.03 1017 4 6 0.05 1.27
11:58 pm 23:58 Cloudy with Light Rain 55 12.8 54 12.2 96 96 SW 3 6 30.04 1017 4 6 0.00 0.00

Powered by AerisWeather